sat.trackr.live / text

‹ back to catalog

STARLINK-2594

NORAD 48388 · 2021-038AM

PAYLOAD ACTIVE UNKNOWN

§ Identity

Operator
Country
US
Launch date
2021-05-04
Launch site
AFETR
Launch vehicle
Mass (kg)
RCS (m²)

Purposes: comms

External: N2YO · Heavens-Above · Gunter

§ Orbital elements

Epoch: 2026-05-24T23:19:48.879264Z

Period
94.01 min
Inclination
53.1604°
Eccentricity
0.0001215
Mean motion
15.31692491 rev/d
Perigee alt
469.9 km
Apogee alt
471.6 km
Semi-major
6,848.9 km
B*
1.5758e-4
RAAN
350.5378°
Arg perigee
78.2652°
Mean anomaly
281.8486°
Rev number
27,894

§ Raw data

STARLINK-25941 48388U 21038AM  26144.97209351  .00004527  00000+0  15758-3 0  99942 48388  53.1604 350.5378 0001215  78.2652 281.8486 15.31692491278940

JSON: /api/v1/satellites/48388 · /tle

For live sub-satellite position, see the globe view (requires WebGL).

§ Visibility from observer

Set your observer location to see the next 7 days of passes ≥ 10°. The values pass through the URL so the page stays shareable.

No JS? Fill the form by hand. The geolocation button needs JavaScript.